Retour au catalogue

STARLINK-31907

ActifCommunicationsVLEO
NORAD 59797·PAYLOAD·🇺🇸 United States

Lancé May 18, 2024 depuis Cape Canaveral Space Force Station

Loading…

Prochains Passages (prochaines 24 heures)

TLE

FraisSource: CelesTrak SupGP

Époque: Sep 15, 2026, 02:09 UTC

1 59797C 24093R   26258.09006944 -.00044340  00000+0 -16061-2 0  2580
2 59797  42.9998 219.3036 0001376 270.7966   4.2025 15.27597429    13

Suivez STARLINK-31907 en temps réel avec AllMySat

Download on the App Store